Home   Weather   City of Fairfield   Past weeks
Flag for USA

Past Weather in City of Fairfield, Iowa, USA — Yesterday and Last 2 Weeks

Now
27 °F

More clouds than sun.


Feels Like: 14 °F
Forecast: 29 / 17 °F
Wind: 17 mph from Northwest

Location: Fair Field

Current Time: Dec 14, 2019 at 9:43:13 am

Latest Report: Dec 14, 2019 at 9:15 am


Visibility: 7 mi

Pressure: 29.88 "Hg

Humidity: 86%

Dew Point: 23 °F

Location of City of FairfieldLocation

Past Weather in City of Fairfield — Graph

°F

City of Fairfield Temperature Yesterday

Maximum temperature yesterday: 36 °F (at 2:15 pm)
Minimum temperature yesterday: 23 °F (at 7:15 am)
Average temperature yesterday: 29 °F

High & Low Weather Summary for the Past Weeks

 TemperatureHumidityPressure
High57 °F (Dec 5, 1:35 pm)100% (Nov 29, 8:15 am)30.46 "Hg (Nov 29, 8:15 am)
Low10 °F (Dec 10, 5:35 am)42% (Dec 12, 10:35 am)29.31 "Hg (Nov 30, 7:55 pm)
Average33 °F85%29.97 "Hg
* Reported Nov 29 8:15 am — Dec 14 8:15 am, City of Fairfield. Weather by CustomWeather, © 2019

Note: Actual official high and low records may vary slightly from our data, if they occured in-between our weather recording intervals... More about our weather records

City of Fairfield Weather History for the Previous 24 Hours

Scroll right to see more
 ConditionsComfort  
Time TempWeatherWind HumidityBarometerVisibility
8:15 am
Sat, Dec 14
27 °FIce fog.10 mph100%29.86 "Hg3 mi
7:55 am27 °FIce fog.10 mph100%29.86 "Hg5 mi
7:35 am27 °FIce fog.12 mph93%29.86 "Hg6 mi
7:15 am27 °FOvercast.13 mph93%29.85 "Hg9 mi
6:55 am27 °FOvercast.14 mph93%29.86 "Hg9 mi
6:35 am27 °FOvercast.15 mph93%29.85 "Hg9 mi
6:15 am27 °FOvercast.17 mph93%29.84 "Hg10 mi
5:55 am27 °FOvercast.13 mph93%29.83 "Hg10 mi
5:35 am27 °FOvercast.14 mph93%29.83 "Hg10 mi
5:15 am27 °FOvercast.12 mph93%29.83 "Hg10 mi
4:55 am27 °FOvercast.15 mph93%29.82 "Hg10 mi
4:35 am27 °FOvercast.14 mph100%29.82 "Hg10 mi
4:15 am27 °FOvercast.13 mph93%29.81 "Hg10 mi
3:55 am27 °FOvercast.15 mph93%29.81 "Hg10 mi
3:35 am27 °FMostly cloudy.16 mph93%29.81 "Hg7 mi
3:15 am27 °FIce fog.15 mph100%29.82 "Hg3 mi
2:55 am27 °FIce fog.14 mph100%29.81 "Hg2 mi
2:35 am28 °FIce fog.17 mph100%29.81 "Hg1 mi
2:15 am28 °FIce fog.15 mph100%29.81 "Hg3 mi
1:55 am30 °FIce fog.15 mph93%29.81 "Hg4 mi
1:35 am30 °FIce fog.14 mph93%29.80 "Hg6 mi
1:15 am32 °FMostly cloudy.13 mph93%29.79 "Hg7 mi
12:55 am32 °FOvercast.13 mph93%29.78 "Hg7 mi
12:35 am32 °FOvercast.13 mph93%29.79 "Hg7 mi
12:15 am32 °FOvercast.12 mph93%29.80 "Hg7 mi
11:55 pm
Fri, Dec 13
32 °FOvercast.10 mph93%29.80 "Hg7 mi
11:35 pm32 °FIce fog.7 mph93%29.81 "Hg6 mi
11:15 pm32 °FIce fog.8 mph93%29.81 "Hg6 mi
10:55 pm32 °FIce fog.7 mph93%29.81 "Hg6 mi
10:35 pm32 °FIce fog.6 mph93%29.81 "Hg6 mi
10:15 pm32 °FIce fog.5 mph93%29.81 "Hg6 mi
9:55 pm32 °FIce fog.3 mph93%29.81 "Hg6 mi
9:35 pm32 °FIce fog.6 mph93%29.81 "Hg6 mi
9:15 pm32 °FIce fog.8 mph93%29.81 "Hg6 mi
8:55 pm28 °FOvercast.6 mph100%29.81 "Hg7 mi
8:35 pm30 °FPassing clouds.3 mph93%29.81 "Hg7 mi
8:15 pm30 °FOvercast.3 mph93%29.81 "Hg7 mi
7:55 pm30 °FOvercast.5 mph93%29.81 "Hg7 mi
7:35 pm32 °FOvercast.5 mph87%29.82 "Hg7 mi
7:15 pm32 °FOvercast.No wind87%29.82 "Hg7 mi
6:55 pm32 °FMostly cloudy.3 mph87%29.82 "Hg8 mi
6:35 pm32 °FMostly cloudy.3 mph87%29.82 "Hg8 mi
6:15 pm32 °FMostly cloudy.No wind87%29.83 "Hg9 mi
5:55 pm32 °FOvercast.No wind87%29.83 "Hg9 mi
5:35 pm32 °FPartly cloudy.3 mph87%29.83 "Hg9 mi
5:15 pm32 °FMostly cloudy.No wind87%29.83 "Hg10 mi
4:55 pm34 °FOvercast.No wind81%29.83 "Hg9 mi
4:35 pm34 °FOvercast.5 mph81%29.83 "Hg8 mi
4:15 pm34 °FPartly sunny.No wind87%29.83 "HgN/A
3:55 pm34 °FScattered clouds.5 mph87%29.83 "Hg8 mi
3:35 pm34 °FBroken clouds.6 mph87%29.83 "Hg9 mi
3:15 pm36 °FPassing clouds.No wind81%29.83 "Hg8 mi
2:55 pm36 °FScattered clouds.3 mph81%29.83 "Hg9 mi
2:35 pm36 °FScattered clouds.No wind81%29.84 "Hg9 mi
2:15 pm36 °FScattered clouds.3 mph81%29.84 "Hg9 mi
1:55 pm34 °FPassing clouds.No wind81%29.85 "Hg8 mi
1:35 pm34 °FSunny.3 mph87%29.85 "Hg8 mi
1:15 pm32 °FSunny.5 mph93%29.87 "Hg7 mi
12:55 pm30 °FIce fog.No wind100%29.87 "Hg6 mi
12:35 pm30 °FIce fog.No wind100%29.88 "Hg6 mi
12:15 pm28 °FIce fog.No wind100%29.89 "Hg5 mi
11:55 am28 °FIce fog.No wind100%29.90 "Hg3 mi
11:35 am27 °FIce fog.No wind100%29.90 "Hg2 mi
11:15 am27 °FIce fog.3 mph100%29.91 "Hg1 mi
10:55 am25 °FIce fog.7 mph100%29.92 "Hg1 mi
10:35 am25 °FIce fog.6 mph100%29.93 "Hg0 mi
10:15 am25 °FIce fog.5 mph100%29.94 "Hg0 mi
9:55 am25 °FIce fog.5 mph100%29.94 "Hg0 mi
9:35 am25 °FIce fog.3 mph100%29.95 "Hg0 mi
9:15 am23 °FIce fog.5 mph100%29.95 "Hg0 mi
Weather by CustomWeather, © 2019

See weather overview

Advertising